[[{"header":{"parameterUnit":"m.s-1","parameterCategory":1,"la1":30.2991,"la2":30.254,"lo1":-89.0895,"lo2":-89.0444,"dy":0.0017,"dx":0.0017,"nx":28,"ny":28,"refTime":"2025-01-13T03:00:00:Z","depth":0,"parameterNumber":2,"parameterNumberName":"U-component_of_WINDS"},"data":[0,0,0,0,0,0,0,0,0,0,0,0,0,0,0,0,0,0,0,0,0,0,0,0,0,0,0,0,0,0,0,0,0,0,0,0,0,0,0,0,0,0,0,0,0,0,0,0,0,0,0,0,0,0,0,0,0,0,-1.3851,-1.3852,0,-1.3924,-1.3925,-1.3926,-1.3891,-1.3889,-1.3887,-1.3886,-1.3963,-1.3966,-1.397,0,0,0,0,0,0,0,0,0,0,0,0,0,-1.3684,-1.3687,-1.3851,-1.3852,-1.3853,-1.3924,-1.3925,-1.3926,-1.3891,-1.3889,-1.3887,-1.3885,-1.3961,-1.3966,-1.3971,0,0,0,0,0,0,0,0,0,0,0,0,0,-1.3757,-1.3688,-1.3851,-1.3844,-1.3844,-1.3924,-1.3925,-1.3926,-1.3892,-1.3889,-1.3886,-1.3884,-1.396,-1.3966,-1.3971,-1.4062,0,0,-1.3989,-1.3991,0,0,0,0,0,0,0,0,-1.3753,-1.3763,-1.3844,-1.3845,-1.3845,-1.3896,-1.3894,-1.3972,-1.3893,-1.3874,-1.3886,-1.3882,-1.3943,-1.395,-1.397,-1.4066,-1.4069,-1.3989,-1.3993,-1.3995,-1.3997,0,0,0,0,0,0,0,-1.3748,-1.376,-1.388,-1.3846,-1.3846,-1.3838,-1.3845,-1.3909,-1.3923,-1.3875,-1.3873,-1.3882,-1.3943,-1.3964,-1.3971,-1.4071,-1.3989,-1.3994,-1.3997,-1.4,-1.4246,-1.4249,0,0,0,0,0,0,-1.3742,-1.3756,-1.3878,-1.3882,-1.3791,-1.3843,-1.3852,-1.3882,-1.3923,-1.3926,-1.3884,-1.388,-1.3956,-1.3965,-1.3974,-1.4085,-1.3995,-1.4,-1.4004,-1.4243,-1.4247,-1.425,0,0,0,0,0,0,-1.3739,-1.3754,-1.3875,-1.3818,-1.3833,-1.3849,-1.3884,-1.3885,-1.3907,-1.3929,-1.3932,-1.3904,-1.3954,-1.3966,-1.4041,-1.4087,-1.4003,-1.4008,-1.4239,-1.4244,-1.4248,-1.4306,0,0,0,0,0,0,-1.3734,-1.3753,-1.3787,-1.3819,-1.3836,-1.3941,-1.3887,-1.3889,-1.3917,-1.3912,-1.3948,-1.3952,-1.3953,-1.4032,-1.4046,-1.4093,-1.4012,-1.4235,-1.4241,-1.4247,-1.43,-1.4312,-1.4322,0,0,0,0,0,-1.3728,-1.3801,-1.3789,-1.3804,-1.388,-1.3943,-1.3953,-1.3952,-1.392,-1.3956,-1.397,-1.3951,-1.4079,-1.404,-1.4056,-1.4105,-1.4232,-1.424,-1.4246,-1.4295,-1.431,-1.4322,0,0,0,0,0,0,-1.3775,-1.3805,-1.3792,-1.3877,-1.3908,-1.3937,-1.3982,-1.3967,-1.4008,-1.4002,-1.4,-1.4008,-1.4086,-1.4102,-1.4059,-1.4196,-1.4151,-1.4161,-1.4183,-1.4197,-1.4208,-1.4203,-1.4017,0,0,0,0,0,-1.3795,-1.3843,-1.3867,-1.394,-1.3955,-1.3966,-1.3993,-1.399,-1.4022,-1.4035,-1.4054,-1.4087,-1.4134,-1.4166,-1.4211,-1.4301,-1.431,-1.4343,-1.4354,-1.4363,-1.4373,-1.4423,-1.4438,-1.4273,-1.4273,-1.4273,0,0,-1.3837,-1.3859,-1.389,-1.395,-1.3973,-1.4024,-1.3977,-1.4033,-1.4071,-1.4044,-1.4116,-1.4131,-1.4167,-1.425,-1.4288,-1.4266,-1.442,-1.4372,-1.4379,-1.4384,-1.4432,-1.4447,-1.4461,-1.4278,-1.4277,-1.4276,0,0,-1.3941,-1.3962,-1.4025,-1.4049,-1.4084,-1.409,-1.4106,-1.4137,-1.4146,-1.4218,-1.4199,-1.4243,-1.4325,-1.4352,-1.4376,-1.4488,-1.4472,-1.4502,-1.4562,-1.4611,-1.4624,-1.4635,-1.4677,-1.4692,-1.4512,-1.4512,-1.4512,0,-1.3989,-1.4065,-1.406,-1.4117,-1.4144,-1.412,-1.4185,-1.4208,-1.4257,-1.4277,-1.4251,-1.4353,-1.4375,-1.4465,-1.4492,-1.4512,-1.453,-1.45,-1.4622,-1.4634,-1.4644,-1.4684,-1.47,-1.4515,-1.4515,-1.4515,-1.4514,0,-1.4123,-1.4176,-1.4223,-1.427,-1.4302,-1.4362,-1.4367,-1.44,-1.4393,-1.4402,-1.4476,-1.4502,-1.4552,-1.4572,-1.4566,-1.4661,-1.4647,-1.4622,-1.4577,-1.4664,-1.4702,-1.4717,-1.4521,-1.4519,-1.4518,-1.4517,0,0,-1.4261,-1.4303,-1.4321,-1.4342,-1.4378,-1.4419,-1.4479,-1.4527,-1.4556,-1.4589,-1.464,-1.4709,-1.4686,-1.4713,-1.471,-1.4752,-1.4842,-1.4722,-1.4723,-1.4745,-1.495,-1.4971,-1.4988,-1.483,-1.4833,-1.4835,-1.4948,0,-1.4369,-1.4473,-1.447,-1.4567,-1.4616,-1.4593,-1.4645,-1.4673,-1.4683,-1.4726,-1.4737,-1.4786,-1.4751,-1.4768,-1.4808,-1.4822,-1.4883,-1.4813,-1.4879,-1.4882,-1.4874,-1.5008,-1.503,-1.5135,-1.4962,-1.4964,-1.4966,0,-1.451,-1.4547,-1.465,-1.4679,-1.4699,-1.4746,-1.479,-1.4831,-1.4862,-1.4866,-1.4896,-1.4886,-1.4947,-1.4898,-1.4983,-1.4936,-1.4962,-1.4972,-1.4977,-1.4985,-1.4931,-1.5022,-1.5169,-1.5186,-1.4989,-1.4987,-1.4986,0,-1.4603,-1.4679,-1.475,-1.4768,-1.4804,-1.4837,-1.4854,-1.4882,-1.4911,-1.4949,-1.4968,-1.5013,-1.5038,-1.5073,-1.5075,-1.5039,-1.5162,-1.5113,-1.5168,-1.5168,-1.5198,-1.5196,-1.5353,-1.521,-1.521,-1.5209,-1.5209,0,-1.4725,-1.479,-1.4792,-1.4837,-1.4908,-1.4903,-1.4973,-1.4986,-1.5012,-1.5059,-1.504,-1.5085,-1.5083,-1.5128,-1.513,-1.5201,-1.5212,-1.5218,-1.5218,-1.5221,-1.5221,-1.5241,-1.5234,-1.5213,-1.5212,-1.5212,-1.5211,0,-1.4843,-1.4847,-1.4924,-1.495,-1.4958,-1.501,-1.5033,-1.5075,-1.5081,-1.5141,-1.5155,-1.5166,-1.5218,-1.5223,-1.5283,-1.5284,-1.5371,-1.5362,-1.5361,-1.536,-1.5416,-1.5412,-1.5593,-1.5618,-1.5456,-1.5458,-1.5459,0,-1.4923,-1.4971,-1.5002,-1.5032,-1.505,-1.5098,-1.5127,-1.5124,-1.5155,-1.5194,-1.5232,-1.5282,-1.5322,-1.5407,-1.5421,-1.5467,-1.5461,-1.5521,-1.5468,-1.547,-1.5465,-1.5463,-1.5469,-1.5533,-1.5534,-1.5536,-1.5537,0,-1.5064,-1.5063,-1.5106,-1.5149,-1.5185,-1.5219,-1.5251,-1.5276,-1.5276,-1.5313,-1.5365,-1.5396,-1.5458,-1.5508,-1.5553,-1.5571,-1.5555,-1.5553,-1.5569,-1.5574,-1.5572,-1.5576,-1.5392,-1.555,-1.5548,-1.5548,-1.5547,-1.5546,-1.5167,-1.5209,-1.5238,-1.5286,-1.5309,-1.5339,-1.538,-1.5392,-1.5436,-1.5485,-1.548,-1.5539,-1.5568,-1.5627,-1.5648,-1.5694,-1.5674,-1.5696,-1.5702,-1.5709,-1.5716,-1.5562,-1.5702,-1.5702,-1.5701,-1.5701,-1.5701,0,-1.5309,-1.5326,-1.537,-1.5415,-1.5453,-1.5432,-1.5466,-1.55,-1.5552,-1.558,-1.562,-1.5681,-1.5729,-1.5746,-1.5794,-1.5828,-1.5822,-1.5841,-1.584,-1.5844,-1.573,-1.5713,-1.5845,-1.5845,-1.5845,-1.5845,-1.5845,-1.5845,-1.5388,-1.546,-1.5462,-1.5545,-1.5561,-1.5618,-1.564,-1.5667,-1.569,-1.5759,-1.5799,-1.5809,-1.5833,-1.5882,-1.5926,-1.593,-1.5949,-1.5972,-1.5973,-1.5867,-1.5852,-1.5839,-1.5823,-1.5976,-1.5976,-1.6084,-1.6085,-1.6086]},{"header":{"parameterUnit":"m.s-1","parameterCategory":1,"la1":30.2991,"la2":30.254,"lo1":-89.0895,"lo2":-89.0444,"dy":0.0017,"dx":0.0017,"nx":28,"ny":28,"refTime":"2025-01-13T03:00:00:Z","depth":0,"parameterNumber":3,"parameterNumberName":"V-component_of_WINDS"},"data":[0,0,0,0,0,0,0,0,0,0,0,0,0,0,0,0,0,0,0,0,0,0,0,0,0,0,0,0,0,0,0,0,0,0,0,0,0,0,0,0,0,0,0,0,0,0,0,0,0,0,0,0,0,0,0,0,0,0,-5.307,-5.3072,0,-5.3191,-5.3192,-5.3193,-5.3115,-5.3111,-5.3107,-5.3104,-5.3225,-5.3231,-5.3237,0,0,0,0,0,0,0,0,0,0,0,0,0,-5.2769,-5.2775,-5.307,-5.3072,-5.3073,-5.319,-5.3192,-5.3194,-5.3115,-5.3111,-5.3107,-5.3102,-5.3222,-5.323,-5.3238,0,0,0,0,0,0,0,0,0,0,0,0,0,-5.2896,-5.2777,-5.307,-5.3048,-5.3048,-5.319,-5.3192,-5.3194,-5.3116,-5.3111,-5.3105,-5.31,-5.322,-5.3229,-5.3239,-5.3409,0,0,-5.3269,-5.3274,0,0,0,0,0,0,0,0,-5.2889,-5.2907,-5.305,-5.305,-5.3049,-5.3132,-5.313,-5.3266,-5.3118,-5.309,-5.3104,-5.3098,-5.3198,-5.3209,-5.3244,-5.3414,-5.342,-5.327,-5.3276,-5.328,-5.3283,0,0,0,0,0,0,0,-5.288,-5.2901,-5.3118,-5.3052,-5.3052,-5.3032,-5.3044,-5.3155,-5.3173,-5.3092,-5.3087,-5.3102,-5.3197,-5.3234,-5.3246,-5.3421,-5.327,-5.3279,-5.3285,-5.3289,-5.3737,-5.3743,0,0,0,0,0,0,-5.2874,-5.2895,-5.3114,-5.3121,-5.2954,-5.3041,-5.3055,-5.3111,-5.3172,-5.3176,-5.3107,-5.3098,-5.322,-5.3235,-5.325,-5.3453,-5.328,-5.329,-5.3295,-5.3731,-5.3738,-5.3745,0,0,0,0,0,0,-5.2867,-5.2894,-5.3109,-5.3007,-5.3032,-5.3052,-5.3116,-5.3116,-5.3154,-5.3183,-5.3185,-5.3142,-5.3217,-5.3236,-5.337,-5.3456,-5.3294,-5.3303,-5.3724,-5.3733,-5.3742,-5.3861,0,0,0,0,0,0,-5.2859,-5.2892,-5.2958,-5.3009,-5.3038,-5.3229,-5.3121,-5.3123,-5.3172,-5.3161,-5.3217,-5.322,-5.3214,-5.3356,-5.338,-5.3467,-5.3311,-5.3716,-5.3728,-5.3739,-5.3849,-5.3873,-5.3893,0,0,0,0,0,-5.2849,-5.2986,-5.2962,-5.2988,-5.3121,-5.3234,-5.3251,-5.3241,-5.3179,-5.3244,-5.3263,-5.3219,-5.3442,-5.337,-5.3397,-5.3488,-5.3711,-5.3725,-5.3738,-5.384,-5.3868,-5.3892,0,0,0,0,0,0,-5.2944,-5.2992,-5.2966,-5.3124,-5.3175,-5.322,-5.3303,-5.3271,-5.3341,-5.3329,-5.3312,-5.3326,-5.3466,-5.349,-5.3408,-5.3655,-5.3567,-5.3586,-5.3635,-5.3662,-5.3684,-5.3676,-5.3319,0,0,0,0,0,-5.2983,-5.3072,-5.3109,-5.3244,-5.3272,-5.3283,-5.3332,-5.332,-5.3373,-5.3394,-5.3422,-5.3474,-5.3555,-5.361,-5.3687,-5.3851,-5.3863,-5.3927,-5.3949,-5.3967,-5.3984,-5.4073,-5.4103,-5.3789,-5.3789,-5.3789,0,0,-5.3065,-5.3103,-5.316,-5.3265,-5.3303,-5.3395,-5.3302,-5.3403,-5.347,-5.3409,-5.3538,-5.356,-5.3616,-5.3767,-5.3835,-5.3791,-5.4073,-5.3984,-5.3998,-5.4006,-5.409,-5.412,-5.4146,-5.3798,-5.3796,-5.3795,0,0,-5.3262,-5.3299,-5.3417,-5.3458,-5.3518,-5.3524,-5.3552,-5.3602,-5.3615,-5.3744,-5.37,-5.3779,-5.3921,-5.3963,-5.4003,-5.4216,-5.4178,-5.4241,-5.4355,-5.4442,-5.4467,-5.4489,-5.4566,-5.4593,-5.4258,-5.4258,-5.4258,0,-5.3357,-5.3494,-5.3481,-5.3586,-5.3633,-5.3582,-5.3701,-5.374,-5.3822,-5.3856,-5.3805,-5.3982,-5.4016,-5.4176,-5.4228,-5.4262,-5.4294,-5.4235,-5.4465,-5.4487,-5.4507,-5.458,-5.4609,-5.4265,-5.4264,-5.4264,-5.4263,0,-5.3608,-5.3704,-5.3791,-5.3873,-5.393,-5.4041,-5.4044,-5.4102,-5.4085,-5.4097,-5.4229,-5.4268,-5.4352,-5.4388,-5.4372,-5.4546,-5.4518,-5.4467,-5.4378,-5.4544,-5.4613,-5.4641,-5.4276,-5.4273,-5.4271,-5.4269,0,0,-5.387,-5.3943,-5.3975,-5.4012,-5.4074,-5.4147,-5.4255,-5.4338,-5.439,-5.4447,-5.4537,-5.4658,-5.4611,-5.4656,-5.4644,-5.472,-5.4887,-5.466,-5.4661,-5.4702,-5.5082,-5.5122,-5.5154,-5.4862,-5.4867,-5.4871,-5.5078,0,-5.4072,-5.4262,-5.4253,-5.4431,-5.4519,-5.4471,-5.4565,-5.4613,-5.4626,-5.4702,-5.4715,-5.4802,-5.4733,-5.4761,-5.4834,-5.4852,-5.4964,-5.4836,-5.4946,-5.495,-5.4935,-5.519,-5.5232,-5.5426,-5.5105,-5.5109,-5.5112,0,-5.4333,-5.4401,-5.4588,-5.4637,-5.4674,-5.4759,-5.4835,-5.4908,-5.496,-5.4964,-5.5015,-5.499,-5.5099,-5.5006,-5.5155,-5.5069,-5.5112,-5.5127,-5.5135,-5.5146,-5.5043,-5.521,-5.5487,-5.5517,-5.5154,-5.5151,-5.5148,0,-5.4507,-5.4645,-5.4775,-5.4807,-5.4867,-5.4929,-5.4956,-5.5003,-5.5054,-5.5119,-5.5152,-5.5229,-5.5271,-5.533,-5.5326,-5.5259,-5.5478,-5.5384,-5.5484,-5.5485,-5.5534,-5.5532,-5.5825,-5.556,-5.556,-5.5559,-5.5558,0,-5.4735,-5.4852,-5.4854,-5.4935,-5.5063,-5.5051,-5.5179,-5.5199,-5.5242,-5.5325,-5.5286,-5.5364,-5.5354,-5.5432,-5.5429,-5.5553,-5.5572,-5.5578,-5.5576,-5.5583,-5.5583,-5.5613,-5.56,-5.5567,-5.5565,-5.5563,-5.5562,0,-5.4952,-5.4958,-5.5097,-5.5143,-5.5157,-5.525,-5.5288,-5.5364,-5.5373,-5.5478,-5.5502,-5.5517,-5.5607,-5.5608,-5.5711,-5.5709,-5.5861,-5.5843,-5.5844,-5.5842,-5.5942,-5.5933,-5.6266,-5.6309,-5.6015,-5.6018,-5.602,0,-5.5098,-5.5187,-5.5242,-5.5295,-5.5327,-5.5413,-5.5465,-5.5455,-5.551,-5.5577,-5.5644,-5.5731,-5.58,-5.5946,-5.5965,-5.6043,-5.6027,-5.6138,-5.6039,-5.6043,-5.6031,-5.6027,-5.6036,-5.6159,-5.6162,-5.6165,-5.6167,0,-5.5356,-5.5355,-5.5432,-5.551,-5.5573,-5.5634,-5.569,-5.5735,-5.5732,-5.5795,-5.5888,-5.5941,-5.6046,-5.6133,-5.6209,-5.6235,-5.6202,-5.6198,-5.6225,-5.6234,-5.6232,-5.6236,-5.5899,-5.6191,-5.6188,-5.6186,-5.6185,-5.6184,-5.5543,-5.562,-5.5672,-5.5758,-5.5799,-5.5853,-5.5926,-5.5945,-5.6022,-5.6108,-5.6097,-5.62,-5.6249,-5.6347,-5.6381,-5.646,-5.6421,-5.6461,-5.6471,-5.6482,-5.6494,-5.6217,-5.6473,-5.6473,-5.6472,-5.6472,-5.6471,0,-5.5801,-5.5831,-5.5911,-5.5992,-5.606,-5.6022,-5.6081,-5.6141,-5.6232,-5.6282,-5.6351,-5.6456,-5.654,-5.6565,-5.6646,-5.6705,-5.6691,-5.6726,-5.6723,-5.673,-5.6523,-5.6492,-5.6736,-5.6736,-5.6736,-5.6736,-5.6736,-5.6736,-5.5943,-5.6072,-5.6077,-5.6225,-5.6254,-5.6356,-5.6394,-5.6442,-5.6482,-5.6602,-5.6672,-5.6688,-5.6728,-5.6811,-5.6886,-5.6891,-5.6923,-5.6965,-5.6964,-5.6771,-5.6744,-5.6719,-5.669,-5.6972,-5.6972,-5.7165,-5.7166,-5.7168]}]]